Temp_Advection
nan nan nan nan nan nan nan nan nan nan nan nan nan nan nan nan nan nan nan nan nan nan
nan -4 -5 -2 -0 -0 -1 0 -0 0 0 1 1 1 -1 1 0 -0 -0 -0 0 nan
nan -2 -4 -4 -2 -1 -1 -1 -0 0 -0 0 -0 -0 0 1 0 -0 -0 -0 -0 nan
nan -2 -3 -5 -3 -1 -2 -0 -0 -0 0 0 0 0 1 1 -0 0 -0 -0 0 nan
nan -3 -2 -4 -2 -2 -1 -0 -1 1 1 0 1 1 1 -0 0 -0 -0 0 1 nan
nan -3 -4 -3 -2 -2 -1 -2 -0 0 0 1 0 0 0 0 -0 -0 0 0 0 nan
nan -2 -2 -3 -4 -3 -2 -0 -1 -1 0 1 1 1 0 -0 -1 0 0 -0 -0 nan
nan -1 -2 -4 -3 -2 -1 -1 -0 -0 -0 1 1 1 0 -0 -1 -0 -0 0 0 nan
nan -1 -2 -2 -2 -2 -2 -2 1 -1 -1 0 0 0 0 -0 -0 -0 0 0 0 nan
nan -1 -1 -1 -1 -2 -3 0 0 -1 -1 -0 0 1 0 -0 -0 0 1 -0 -0 nan
nan 0 -0 -0 -1 -1 -2 -1 -1 -1 -0 0 1 1 -0 0 0 -0 -0 -0 -1 nan
nan 0 -0 0 0 0 0 0 -1 0 1 0 1 1 -0 0 -0 -0 0 0 0 nan
nan 0 0 0 1 1 2 2 2 2 2 1 1 0 0 1 0 1 1 0 0 nan
nan nan nan nan nan nan nan nan nan nan nan nan nan nan nan nan nan nan nan nan nan nan
Wind_Speed
43 41 42 34 29 48 52 50 52 53 51 53 47 44 43 40 41 42 42 41 43 42
45 45 46 46 36 37 54 51 49 50 52 54 50 51 42 42 44 44 40 39 38 40
43 46 47 50 51 31 52 48 45 46 44 54 52 51 47 46 45 43 39 37 37 37
38 42 46 43 50 38 38 50 41 45 45 50 54 53 55 49 45 43 41 38 37 38
33 37 44 44 52 45 44 44 46 41 43 49 53 55 55 51 48 45 43 41 38 40
29 32 37 39 44 40 40 56 40 42 41 43 52 54 55 54 51 48 48 44 42 40
22 26 33 35 44 49 48 31 44 45 44 42 42 49 53 57 54 50 46 41 41 42
19 20 28 32 40 44 47 50 38 48 46 44 44 43 48 52 53 53 49 42 44 45
19 17 20 22 32 51 41 51 54 55 53 48 46 46 45 49 52 51 49 47 47 44
22 18 13 14 21 34 53 45 43 56 53 50 47 48 46 46 47 47 45 44 44 37
26 22 11 7 8 21 40 42 47 47 51 50 49 44 52 45 45 43 39 40 37 35
29 27 20 13 8 7 23 35 38 40 39 50 50 43 40 44 48 42 41 36 33 31
30 29 26 21 19 14 10 14 35 29 33 57 48 43 42 37 38 38 37 35 32 31
30 30 32 27 25 22 19 18 16 22 26 41 38 44 41 36 35 36 38 38 35 34
Wind_Direction
273 264 248 246 263 231 234 231 229 224 223 229 218 222 220 225 223 220 218 219 218 220
270 266 255 246 243 244 232 231 228 226 226 222 219 220 222 223 222 221 218 220 219 222
268 264 260 249 248 259 224 226 228 227 226 223 219 224 223 221 220 219 217 219 219 221
269 264 260 255 246 246 231 217 224 225 224 225 226 223 228 220 222 220 220 216 218 221
271 261 255 252 233 243 233 228 217 221 227 225 222 223 222 222 223 221 221 218 215 219
275 264 254 251 248 244 238 226 227 224 224 226 225 223 226 224 224 227 225 217 217 220
296 275 255 251 240 237 231 228 231 230 226 225 230 226 224 225 228 231 226 224 227 222
319 294 267 248 235 233 233 223 221 231 226 224 226 225 225 226 229 229 224 223 231 227
342 315 274 251 236 225 226 221 227 226 226 221 226 228 227 225 224 226 223 225 229 231
359 347 304 274 234 224 226 215 219 216 223 222 224 225 225 222 221 220 221 223 225 228
7 12 359 325 242 220 216 223 231 226 222 219 221 221 223 219 220 220 220 218 222 227
16 21 24 28 42 183 207 212 215 210 209 220 219 214 214 212 210 215 216 215 217 225
23 33 36 42 49 77 125 168 201 203 196 211 215 207 216 216 202 213 218 215 218 224
26 41 46 52 55 66 82 111 141 179 180 199 205 205 206 211 212 218 218 216 217 225
Height
1450 1450 1450 1451 1457 1457 1461 1464 1470 1473 1479 1480 1484 1490 1499 1505 1511 1515 1517 1520 1526 1531
1443 1441 1440 1443 1442 1448 1451 1455 1459 1464 1470 1476 1482 1486 1490 1496 1504 1508 1509 1514 1519 1526
1431 1431 1429 1432 1433 1435 1438 1444 1449 1454 1460 1465 1471 1477 1483 1489 1496 1501 1503 1506 1511 1518
1422 1420 1419 1417 1420 1423 1419 1427 1436 1444 1450 1456 1462 1468 1469 1481 1485 1491 1497 1498 1502 1510
1412 1410 1409 1409 1414 1414 1414 1415 1424 1434 1442 1447 1453 1458 1464 1470 1476 1482 1487 1492 1495 1502
1404 1402 1399 1397 1399 1405 1409 1412 1414 1424 1432 1438 1444 1450 1456 1462 1467 1472 1478 1482 1488 1493
1399 1392 1389 1389 1392 1398 1402 1393 1406 1414 1422 1430 1436 1442 1447 1453 1458 1463 1469 1476 1481 1486
1391 1385 1385 1381 1381 1387 1391 1394 1392 1407 1414 1421 1427 1433 1438 1443 1448 1453 1460 1466 1471 1477
1388 1385 1380 1373 1374 1378 1382 1387 1393 1399 1405 1411 1417 1423 1428 1434 1439 1444 1450 1455 1463 1468
1388 1382 1372 1367 1365 1366 1371 1377 1384 1388 1396 1401 1406 1413 1419 1425 1430 1435 1441 1447 1454 1460
1387 1378 1371 1367 1359 1359 1362 1368 1372 1380 1387 1392 1397 1403 1410 1417 1424 1429 1433 1439 1446 1452
1387 1377 1369 1364 1357 1351 1353 1358 1363 1367 1375 1385 1391 1395 1402 1407 1412 1419 1427 1432 1438 1444
1390 1379 1372 1364 1354 1352 1352 1351 1357 1362 1368 1374 1380 1388 1396 1398 1399 1412 1420 1424 1431 1437
1395 1386 1375 1362 1358 1353 1350 1350 1351 1355 1361 1363 1371 1378 1386 1395 1399 1405 1410 1416 1423 1430